Time,TemperatureF,DewpointF,PressureIn,WindDirection,WindDirectionDegrees,WindSpeedMPH,WindSpeedGustMPH,Humidity,HourlyPrecipIn,Conditions,Clouds,dailyrainin,SolarRadiationWatts/m^2,SoftwareType,DateUTC
2013-07-24 00:32:00,71.0,29.0,-100.00,East,82,7.0,12.0,21,0.00,,,0.00,1.000000,,2013-07-24 07:32:00,
2013-07-24 00:53:00,71.0,29.0,-100.00,East,82,7.0,12.0,21,0.00,,,0.00,1.000000,,2013-07-24 07:53:00,
2013-07-24 07:02:00,65.0,35.0,-100.00,WSW,246,5.0,9.0,33,-99.99,,,0.00,48.000000,,2013-07-24 14:02:00,
2013-07-24 07:32:00,65.0,35.0,-100.00,WSW,246,5.0,9.0,33,-99.99,,,0.00,48.000000,,2013-07-24 14:32:00,
2013-07-24 07:43:00,65.0,35.0,-100.00,WSW,246,5.0,9.0,33,-99.99,,,0.00,48.000000,,2013-07-24 14:43:00,
2013-07-24 07:55:00,65.0,35.0,-100.00,WSW,246,5.0,9.0,33,-99.99,,,0.00,48.000000,,2013-07-24 14:55:00,
2013-07-24 08:02:00,73.0,34.0,-100.00,North,350,2.0,7.0,24,0.00,,,0.00,198.000000,,2013-07-24 15:02:00,
2013-07-24 08:33:00,73.0,34.0,-100.00,North,350,2.0,7.0,24,0.00,,,0.00,198.000000,,2013-07-24 15:33:00,
2013-07-24 08:43:00,73.0,34.0,-100.00,North,350,2.0,7.0,24,0.00,,,0.00,198.000000,,2013-07-24 15:43:00,
2013-07-24 08:53:00,73.0,34.0,-100.00,North,350,2.0,7.0,24,0.00,,,0.00,198.000000,,2013-07-24 15:53:00,
2013-07-24 09:02:00,73.0,36.0,-100.00,SW,222,6.0,12.0,26,0.00,,,0.00,264.000000,,2013-07-24 16:02:00,
2013-07-24 09:23:00,73.0,36.0,-100.00,SW,222,6.0,12.0,26,0.00,,,0.00,264.000000,,2013-07-24 16:23:00,
2013-07-24 09:33:00,73.0,36.0,-100.00,SW,222,6.0,12.0,26,0.00,,,0.00,264.000000,,2013-07-24 16:33:00,
2013-07-24 09:43:00,73.0,36.0,-100.00,SW,222,6.0,12.0,26,0.00,,,0.00,264.000000,,2013-07-24 16:43:00,
2013-07-24 09:53:00,73.0,36.0,-100.00,SW,222,6.0,12.0,26,0.00,,,0.00,264.000000,,2013-07-24 16:53:00,
2013-07-24 11:02:00,84.0,33.0,-100.00,WNW,283,3.0,10.0,16,0.00,,,-99.99,484.000000,,2013-07-24 18:02:00,
2013-07-24 11:33:00,84.0,33.0,-100.00,WNW,283,3.0,10.0,16,0.00,,,-99.99,484.000000,,2013-07-24 18:33:00,
2013-07-24 11:43:00,84.0,33.0,-100.00,WNW,283,3.0,10.0,16,0.00,,,-99.99,484.000000,,2013-07-24 18:43:00,
2013-07-24 11:52:00,84.0,33.0,-100.00,WNW,283,3.0,10.0,16,0.00,,,-99.99,484.000000,,2013-07-24 18:52:00,
2013-07-24 12:02:00,86.0,25.0,-100.00,WNW,285,6.0,10.0,11,0.00,,,0.00,652.000000,,2013-07-24 19:02:00,
2013-07-24 12:33:00,86.0,25.0,-100.00,WNW,285,6.0,10.0,11,0.00,,,0.00,652.000000,,2013-07-24 19:33:00,
2013-07-24 12:43:00,86.0,25.0,-100.00,WNW,285,6.0,10.0,11,0.00,,,0.00,652.000000,,2013-07-24 19:43:00,
2013-07-24 12:53:00,86.0,25.0,-100.00,WNW,285,6.0,10.0,11,0.00,,,0.00,652.000000,,2013-07-24 19:53:00,
2013-07-24 13:02:00,88.0,22.0,-100.00,West,275,4.0,9.0,9,0.00,,,0.00,690.000000,,2013-07-24 20:02:00,
2013-07-24 13:23:00,88.0,22.0,-100.00,West,275,4.0,9.0,9,0.00,,,0.00,690.000000,,2013-07-24 20:23:00,
2013-07-24 13:33:00,88.0,22.0,-100.00,West,275,4.0,9.0,9,0.00,,,0.00,690.000000,,2013-07-24 20:33:00,
2013-07-24 13:43:00,88.0,22.0,-100.00,West,275,4.0,9.0,9,0.00,,,0.00,690.000000,,2013-07-24 20:43:00,
2013-07-24 13:53:00,88.0,22.0,-100.00,West,275,4.0,9.0,9,0.00,,,0.00,690.000000,,2013-07-24 20:53:00,
2013-07-24 16:02:00,94.0,24.0,-100.00,North,3,7.0,13.0,8,0.00,,,0.00,753.000000,,2013-07-24 23:02:00,
2013-07-24 16:33:00,94.0,24.0,-100.00,North,3,7.0,13.0,8,0.00,,,0.00,753.000000,,2013-07-24 23:33:00,
2013-07-24 16:43:00,94.0,24.0,-100.00,North,3,7.0,13.0,8,0.00,,,0.00,753.000000,,2013-07-24 23:43:00,
2013-07-24 16:52:00,94.0,24.0,-100.00,North,3,7.0,13.0,8,0.00,,,0.00,753.000000,,2013-07-24 23:52:00,
2013-07-24 17:02:00,93.0,20.0,-100.00,North,11,8.0,15.0,7,0.00,,,0.00,625.000000,,2013-07-25 00:02:00,
2013-07-24 17:33:00,93.0,20.0,-100.00,North,11,8.0,15.0,7,0.00,,,0.00,625.000000,,2013-07-25 00:33:00,
2013-07-24 17:43:00,93.0,20.0,-100.00,North,11,8.0,15.0,7,0.00,,,0.00,625.000000,,2013-07-25 00:43:00,
2013-07-24 17:53:00,93.0,20.0,-100.00,North,11,8.0,15.0,7,0.00,,,0.00,625.000000,,2013-07-25 00:53:00,
2013-07-24 18:32:00,94.0,24.0,-100.00,North,349,7.0,11.0,8,0.00,,,0.00,494.000000,,2013-07-25 01:32:00,
2013-07-24 18:43:00,94.0,24.0,-100.00,North,349,7.0,11.0,8,0.00,,,0.00,494.000000,,2013-07-25 01:43:00,
2013-07-24 20:02:00,85.0,44.0,-100.00,NNW,344,5.0,15.0,24,0.00,,,0.00,162.000000,,2013-07-25 03:02:00,
2013-07-24 20:24:00,85.0,44.0,-100.00,NNW,344,5.0,15.0,24,0.00,,,0.00,162.000000,,2013-07-25 03:24:00,
2013-07-24 20:40:00,85.0,44.0,-100.00,NNW,344,5.0,15.0,24,0.00,,,0.00,162.000000,,2013-07-25 03:40:00,
2013-07-24 20:52:00,85.0,44.0,-100.00,NNW,344,5.0,15.0,24,0.00,,,0.00,162.000000,,2013-07-25 03:52:00,
2013-07-24 21:02:00,78.0,44.0,-100.00,NNE,27,3.0,10.0,30,0.00,,,0.00,26.000000,,2013-07-25 04:02:00,
2013-07-24 21:33:00,78.0,44.0,-100.00,NNE,27,3.0,10.0,30,0.00,,,0.00,26.000000,,2013-07-25 04:33:00,
2013-07-24 21:43:00,78.0,44.0,-100.00,NNE,27,3.0,10.0,30,0.00,,,0.00,26.000000,,2013-07-25 04:43:00,
2013-07-24 21:53:00,78.0,44.0,-100.00,NNE,27,3.0,10.0,30,0.00,,,0.00,26.000000,,2013-07-25 04:53:00,
2013-07-24 22:02:00,75.0,44.0,-100.00,ENE,75,6.0,10.0,33,0.00,,,0.00,1.000000,,2013-07-25 05:02:00,
2013-07-24 22:32:00,75.0,44.0,-100.00,ENE,75,6.0,10.0,33,0.00,,,0.00,1.000000,,2013-07-25 05:32:00,
2013-07-24 22:43:00,75.0,44.0,-100.00,ENE,75,6.0,10.0,33,0.00,,,0.00,1.000000,,2013-07-25 05:43:00,
2013-07-24 22:52:00,75.0,44.0,-100.00,ENE,75,6.0,10.0,33,0.00,,,0.00,1.000000,,2013-07-25 05:52:00,
2013-07-24 23:02:00,72.0,42.0,-100.00,ENE,75,6.0,10.0,34,0.00,,,0.00,1.000000,,2013-07-25 06:02:00,
2013-07-24 23:32:00,72.0,42.0,-100.00,ENE,75,6.0,10.0,34,0.00,,,0.00,1.000000,,2013-07-25 06:32:00,
2013-07-24 23:42:00,72.0,42.0,-100.00,ENE,75,6.0,10.0,34,0.00,,,0.00,1.000000,,2013-07-25 06:42:00,
2013-07-24 23:52:00,72.0,42.0,-100.00,ENE,75,6.0,10.0,34,0.00,,,0.00,1.000000,,2013-07-25 06:52:00,